Regional Weather Roundup
Issued by NWS Albany, NY

Home | Current Version | Previous Version | Text Only | Print | Product List | Glossary On
Versions: 1 2 3 4 5 6 7 8 9 10 11 12 13 14 15 16 17 18 19 20 21 22 23 24 25 26 27
000
ASUS41 KALY 201110
RWRALY

NEW YORK STATE HOURLY WEATHER ROUNDUP
NATIONAL WEATHER SERVICE ALBANY NY
700 AM EDT SUN APR 20 2014

NOTE: "FAIR" INDICATES FEW OR NO CLOUDS BELOW 12,000 FEET WITH NO
SIGNIFICANT WEATHER AND/OR NO OBSTRUCTIONS TO VISIBILITY.

NYZ032-033-038>043-046>054-057>066-NYZ062>081-201200-
EAST


CITY           SKY/WX    TMP DP  RH WIND       PRES   REMARKS
ALBANY         PTCLDY    31  24  75 CALM      30.50R
GLENS FALLS    CLEAR     31  24  75 CALM      30.49S
POUGHKEEPSIE   PTCLDY    34  27  75 CALM      30.48R
NEWBURGH       PTCLDY    39  27  60 NE8       30.48S WCI  34
MONTGOMERY     PTCLDY    36  27  69 N8        30.47R WCI  30
WHITE PLAINS   PTCLDY    43  24  47 NE7       30.45R
ISLIP          MOCLDY    44  26  49 NE6       30.46R
NEW YORK CITY  MOCLDY    46  30  53 E12       30.47R
CENTRAL PARK   PTCLDY    46  31  55 E9        30.49R
$$

NYZ005>009-017-018-044>046-055-056-201200-
CENTRAL


CITY           SKY/WX    TMP DP  RH WIND       PRES   REMARKS
FULTON         CLEAR     31  27  85 E3        30.46R
SYRACUSE       PTCLDY    30  28  92 E3        30.46S
ROME           CLEAR     28  23  81 CALM      30.49S
ELMIRA         CLEAR     28  23  81 CALM      30.45R
BINGHAMTON     CLEAR     32  26  78 E5        30.42R WCI  27
MONTICELLO     PTCLDY    34  25  69 NE3       30.46R
$$

NYZ026>034-041>043-201200-
NORTH


CITY           SKY/WX    TMP DP  RH WIND       PRES   REMARKS
WATERTOWN      CLEAR     28  23  81 CALM      30.47R
FORT DRUM      NOT AVBL
MASSENA        CLEAR     30  26  85 CALM      30.49R
SARANAC LAKE   CLEAR     19  16  88 CALM      30.43R
PLATTSBURGH    CLEAR     28  22  78 CALM      30.50R
$$

NYZ001>004-010>016-019>021-201200-
WEST


CITY           SKY/WX    TMP DP  RH WIND       PRES   REMARKS
NIAGARA FALLS  CLEAR     35  25  66 MISG      30.38
BUFFALO        PTCLDY    37  26  64 E7        30.39R WCI  32
DUNKIRK        CLEAR     33  25  72 CALM      30.36S
JAMESTOWN      CLEAR     37  21  52 SE5       30.36S WCI  34
WELLSVILLE     CLEAR     34  23  64 S7        30.39R WCI  28
ROCHESTER      PTCLDY    32  28  85 CALM      30.43S
PENN YAN       CLEAR     31  28  89 CALM      30.43R
$$

             KEY
       WCI = WIND CHILL INDEX
       VSB = VISIBILITY
       HX  = HEAT INDEX
$$



USA.gov is the U.S. government's official web portal to all federal, state and local government web resources and services.